Location: ????????
(55.6189°N, 38.3031°E)
Time: 21:11:50
(UTC+00:00)

SL-16 R/B - Pass Details

Date: 15 November 2019
Orbit: 839 x 850 km, 71.0° (Epoch: 09 December)

Event Time Altitude Azimuth Distance (km) Brightness Sun altitude
Exits shadow 01:26:27 18° 352° (N) 1,997 4.1 -29.8°
Maximum altitude 01:26:31 18° 353° (N) 1,997 4.1 -29.8°
Drops below altitude 10° 01:30:18 10° 34° (NE) 2,489 5.1 -29.3°
Sets 01:33:38 0° 54° (NE) 3,426 6.3 -28.8°
